When you browse on this site, cookies collect data to enhance your experience and personalize the content and advertising you see.
Visit our Privacy Policy to learn more. By continuing to use the site, you agree to this use of cookies and data.
  • In Österreich
  • Länderverzeichnis
  • Für 7 Tage
  • Wassertemperatur
  • Satellitenkarten
  • Wetterkarte
  • News
  • Widgets
  • user-avatar
    Anmelden

    Stündliche Wetter Rokitno

    Heute, 20 Februar, Mittwoch

    Zeit Temperatur Niederschläge Wind Luftdruck Luftfeuchtigkeit
    00:00 +3°C° 0 mm 5 m/S 755 mmHg 84%
    01:00 +3°C° 0 mm 4 m/S 755 mmHg 88%
    02:00 +3°C° 0 mm 4 m/S 755 mmHg 88%
    03:00 +3°C° 0 mm 4 m/S 755 mmHg 89%
    04:00 +2°C° 0 mm 5 m/S 756 mmHg 89%
    05:00 +2°C° 0 mm 5 m/S 756 mmHg 87%
    06:00 +2°C° 0 mm 5 m/S 756 mmHg 86%
    07:00 +3°C° 0 mm 5 m/S 756 mmHg 84%
    08:00 +3°C° 0 mm 5 m/S 757 mmHg 81%
    09:00 +3°C° 0 mm 5 m/S 757 mmHg 79%
    10:00 +5°C° 0 mm 5 m/S 758 mmHg 76%
    11:00 +5°C° 0 mm 5 m/S 758 mmHg 75%
    12:00 +5°C° 0 mm 5 m/S 758 mmHg 74%
    13:00 +6°C° 0 mm 4 m/S 758 mmHg 72%
    14:00 +6°C° 0 mm 4 m/S 759 mmHg 73%
    15:00 +7°C° 0 mm 3 m/S 759 mmHg 73%
    16:00 +7°C° 0 mm 3 m/S 759 mmHg 73%
    17:00 +7°C° 0 mm 2 m/S 759 mmHg 75%
    18:00 +6°C° 0 mm 2 m/S 760 mmHg 78%
    19:00 +6°C° 0 mm 2 m/S 760 mmHg 80%
    20:00 +6°C° 0 mm 2 m/S 760 mmHg 81%
    21:00 +6°C° 0 mm 2 m/S 760 mmHg 82%
    22:00 +6°C° 0 mm 2 m/S 761 mmHg 84%
    23:00 +6°C° 0 mm 2 m/S 761 mmHg 86%

    Morgen, 21 Februar, Donnerstag

    Zeit Temperatur Niederschläge Wind Luftdruck Luftfeuchtigkeit
    00:00 +5°C° 0 mm 2 m/S 761 mmHg 88%
    01:00 +5°C° 0 mm 2 m/S 761 mmHg 90%
    02:00 +4°C° 0 mm 3 m/S 761 mmHg 88%
    03:00 +4°C° 0 mm 3 m/S 760 mmHg 85%
    04:00 +4°C° 0 mm 3 m/S 760 mmHg 83%
    05:00 +4°C° 0.1 mm 3 m/S 760 mmHg 83%
    06:00 +4°C° 0.1 mm 4 m/S 760 mmHg 83%
    07:00 +4°C° 0.1 mm 4 m/S 760 mmHg 84%
    08:00 +5°C° 0.3 mm 4 m/S 760 mmHg 83%
    09:00 +5°C° 0.3 mm 5 m/S 760 mmHg 82%
    10:00 +5°C° 0.3 mm 5 m/S 759 mmHg 81%
    11:00 +4°C° 0.7 mm 6 m/S 759 mmHg 82%
    12:00 +4°C° 0.7 mm 6 m/S 759 mmHg 83%
    13:00 +4°C° 0.7 mm 6 m/S 759 mmHg 84%
    14:00 +5°C° 0.6 mm 6 m/S 759 mmHg 85%
    15:00 +5°C° 0.6 mm 6 m/S 759 mmHg 85%
    16:00 +6°C° 0.6 mm 5 m/S 758 mmHg 85%
    17:00 +6°C° 0.2 mm 5 m/S 758 mmHg 86%
    18:00 +6°C° 0.2 mm 5 m/S 758 mmHg 87%
    19:00 +7°C° 0.2 mm 5 m/S 759 mmHg 89%
    20:00 +7°C° 0.2 mm 5 m/S 759 mmHg 89%
    21:00 +7°C° 0.2 mm 5 m/S 759 mmHg 89%
    22:00 +7°C° 0.2 mm 5 m/S 759 mmHg 90%
    23:00 +7°C° 0.1 mm 5 m/S 759 mmHg 89%

    übermorgen, 22 Februar, Freitag

    Zeit Temperatur Niederschläge Wind Luftdruck Luftfeuchtigkeit
    00:00 +7°C° 0.1 mm 5 m/S 759 mmHg 89%
    01:00 +7°C° 0.1 mm 5 m/S 760 mmHg 88%
    02:00 +6°C° 0 mm 5 m/S 760 mmHg 87%
    03:00 +6°C° 0 mm 5 m/S 761 mmHg 87%
    04:00 +6°C° 0 mm 5 m/S 762 mmHg 86%
    05:00 +3°C° 0 mm 5 m/S 763 mmHg 84%
    06:00 +2°C° 0 mm 6 m/S 764 mmHg 81%
    07:00 -1°C° 0 mm 6 m/S 765 mmHg 79%
    08:00 0°C° 0 mm 5 m/S 766 mmHg 73%
    09:00 0°C° 0 mm 5 m/S 767 mmHg 67%
    10:00 0°C° 0 mm 4 m/S 768 mmHg 61%
    11:00 0°C° 0 mm 4 m/S 769 mmHg 56%
    12:00 +1°C° 0 mm 4 m/S 770 mmHg 51%
    13:00 +3°C° 0 mm 4 m/S 771 mmHg 46%
    14:00 +1°C° 0 mm 4 m/S 771 mmHg 46%
    15:00 +2°C° 0 mm 3 m/S 771 mmHg 46%
    16:00 +2°C° 0 mm 3 m/S 772 mmHg 46%
    17:00 +1°C° 0 mm 3 m/S 772 mmHg 50%
    18:00 +1°C° 0 mm 2 m/S 773 mmHg 55%
    19:00 -1°C° 0 mm 2 m/S 773 mmHg 59%
    20:00 -1°C° 0 mm 2 m/S 774 mmHg 59%
    21:00 -2°C° 0 mm 2 m/S 774 mmHg 59%
    22:00 -2°C° 0 mm 2 m/S 775 mmHg 58%
    23:00 -3°C° 0 mm 2 m/S 775 mmHg 56%

    23 Februar, Samstag

    Zeit Temperatur Niederschläge Wind Luftdruck Luftfeuchtigkeit
    00:00 -3°C° 0 mm 2 m/S 775 mmHg 55%
    01:00 -4°C° 0 mm 3 m/S 775 mmHg 53%
    02:00 -3°C° 0 mm 2 m/S 775 mmHg 51%
    03:00 -3°C° 0 mm 2 m/S 775 mmHg 50%
    04:00 -3°C° 0 mm 2 m/S 775 mmHg 49%
    05:00 -3°C° 0 mm 2 m/S 775 mmHg 48%
    06:00 -4°C° 0 mm 2 m/S 775 mmHg 48%
    07:00 -4°C° 0 mm 2 m/S 775 mmHg 47%
    08:00 -3°C° 0 mm 2 m/S 775 mmHg 42%
    09:00 -2°C° 0 mm 2 m/S 776 mmHg 37%
    10:00 -1°C° 0 mm 2 m/S 776 mmHg 32%
    11:00 +1°C° 0 mm 2 m/S 776 mmHg 30%
    12:00 +1°C° 0 mm 2 m/S 775 mmHg 27%
    13:00 +2°C° 0 mm 2 m/S 775 mmHg 25%
    14:00 +3°C° 0 mm 1 m/S 775 mmHg 25%
    15:00 +3°C° 0 mm 1 m/S 775 mmHg 26%
    16:00 +3°C° 0 mm 1 m/S 774 mmHg 27%
    17:00 +2°C° 0 mm 1 m/S 774 mmHg 30%
    18:00 +1°C° 0 mm 1 m/S 774 mmHg 33%
    19:00 +1°C° 0 mm 1 m/S 774 mmHg 36%
    20:00 0°C° 0 mm 1 m/S 774 mmHg 37%
    21:00 0°C° 0 mm 1 m/S 774 mmHg 37%
    22:00 0°C° 0 mm 1 m/S 774 mmHg 38%
    23:00 0°C° 0 mm 1 m/S 774 mmHg 38%

    24 Februar, Sonntag

    Zeit Temperatur Niederschläge Wind Luftdruck Luftfeuchtigkeit
    00:00 0°C° 0 mm 1 m/S 774 mmHg 38%
    01:00 0°C° 0 mm 1 m/S 774 mmHg 38%
    02:00 0°C° 0 mm 1 m/S 773 mmHg 37%
    03:00 0°C° 0 mm 1 m/S 773 mmHg 37%
    04:00 -1°C° 0 mm 0 m/S 773 mmHg 37%
    05:00 -1°C° 0 mm 0 m/S 773 mmHg 36%
    06:00 -1°C° 0 mm 0 m/S 773 mmHg 36%
    07:00 -1°C° 0 mm 0 m/S 772 mmHg 36%
    08:00 0°C° 0 mm 0 m/S 773 mmHg 33%
    09:00 +1°C° 0 mm 0 m/S 773 mmHg 30%
    10:00 +4°C° 0 mm 1 m/S 773 mmHg 27%
    11:00 +5°C° 0 mm 1 m/S 772 mmHg 27%
    12:00 +5°C° 0 mm 1 m/S 772 mmHg 26%
    13:00 +6°C° 0 mm 1 m/S 772 mmHg 26%
    14:00 +6°C° 0 mm 1 m/S 772 mmHg 30%
    15:00 +6°C° 0 mm 1 m/S 771 mmHg 35%
    16:00 +6°C° 0 mm 1 m/S 771 mmHg 39%
    17:00 +5°C° 0 mm 1 m/S 771 mmHg 42%
    18:00 +3°C° 0 mm 1 m/S 771 mmHg 45%
    19:00 +2°C° 0 mm 1 m/S 772 mmHg 48%
    20:00 +2°C° 0 mm 1 m/S 772 mmHg 50%
    21:00 +2°C° 0 mm 1 m/S 772 mmHg 51%
    22:00 +2°C° 0 mm 1 m/S 772 mmHg 52%
    23:00 +2°C° 0 mm 1 m/S 772 mmHg 54%

    25 Februar, Montag

    Zeit Temperatur Niederschläge Wind Luftdruck Luftfeuchtigkeit
    00:00 +2°C° 0 mm 1 m/S 772 mmHg 55%
    01:00 +1°C° 0 mm 1 m/S 772 mmHg 57%
    02:00 +1°C° 0 mm 1 m/S 772 mmHg 58%
    03:00 +2°C° 0 mm 1 m/S 771 mmHg 58%
    04:00 +1°C° 0 mm 2 m/S 771 mmHg 59%
    05:00 -1°C° 0 mm 2 m/S 771 mmHg 61%
    06:00 -1°C° 0 mm 2 m/S 771 mmHg 63%
    07:00 -1°C° 0 mm 2 m/S 771 mmHg 65%
    08:00 +2°C° 0 mm 2 m/S 772 mmHg 62%
    09:00 +3°C° 0 mm 2 m/S 772 mmHg 60%
    10:00 +4°C° 0 mm 2 m/S 772 mmHg 57%
    11:00 +5°C° 0 mm 3 m/S 772 mmHg 58%
    12:00 +7°C° 0 mm 3 m/S 772 mmHg 59%
    13:00 +8°C° 0 mm 3 m/S 772 mmHg 61%
    14:00 +8°C° 0 mm 3 m/S 771 mmHg 62%
    15:00 +8°C° 0 mm 2 m/S 771 mmHg 64%
    16:00 +9°C° 0 mm 2 m/S 771 mmHg 66%
    17:00 +7°C° 0 mm 2 m/S 771 mmHg 72%
    18:00 +6°C° 0 mm 2 m/S 772 mmHg 78%
    19:00 +5°C° 0 mm 1 m/S 772 mmHg 84%
    20:00 +5°C° 0 mm 1 m/S 772 mmHg 84%
    21:00 +4°C° 0 mm 1 m/S 772 mmHg 85%
    22:00 +4°C° 0 mm 1 m/S 772 mmHg 85%
    23:00 +3°C° 0 mm 1 m/S 772 mmHg 85%
    Mehr zeigen